DELTA 1 DEB, 21317

Orbit data source: Space-Track

DELTA 1 DEB, 21317 is space debris in SSO originally from a launch on Thu, 12 Jun 1975 UTC launched from the Air Force Western Test Range (AFWTR). Debris objects in space refer to the collection of defunct objects orbiting the Earth. Examples of debris include non-operational satellites, rocket bodies, and fragments generated from explosions, collisions, or faulty payload assembly.

Loading next visibility...
Identifier
21317, 1975-052AK
Orbit
SSO
Country
Flag of USUS
Related business
Manufacturer
Unknown
Mission
Spacecraft
Bus & Motor
Unknown
Mass
Unknown
Launch date (UTC)
1975-06-12 (50 years ago)
Launch vehicle
Unknown
Launch site
Air Force Western Test Range (AFWTR)
Object type
Payload
Rocket body
Debris
Shape & HBR
Unknown
Radar Cross Section
Small (<0.1 m²)

Expand to show TLE details & history
Last TLE update: 1 day ago

TLE from 1 day ago
0 DELTA 1 DEB
1 21317U 75052AK  25258.32331586  .00001074  00000-0  18834-2 0  9994
2 21317 100.0936 193.1823 0213028 264.7139 251.3208 13.37292208643708
Epoch: 2025-09-15T07:45Z
TLE epoch observation values (Epoch: 2025-09-15T07:45:34.49Z)
Latitude
25.85318°
Longitude
-92.81778°
Altitude
1,176.564 km
Speed
7.241 km/s
True Right ascension
01h 12m 25s
True Declination
25° 43' 33"
Sunlit
Object was in full shadow at epoch
Visualization orbit readout
Latitude
Unknown
Longitude
Unknown
Altitude
Unknown
Speed
Unknown
Apparent Right ascension
Unknown
Apparent Declination
Unknown
Sunlit
N/A
Visualization observer readout
Local Sidereal Time
04:21:06
Azimuth
Unknown
Elevation
Unknown
Doppler factor
Unknown
Orbital elements
Apogee altitude
1,276.381 km
Perigee altitude
957.059 km
Semi-major axis
7,494.857 km
Eccentricity
0.0213
Inclination
100.0936°
RAAN
193.1823°
Arg. of periapsis
264.7139°
True anomaly
249.02843°
Mean anomaly
251.3208°
Eccentric anomaly
250.1726°
Mean motion
3.34502 °/min
Orbital period
107.62 mins
BSTAR
0.0018834
Loading maneuver chart data...
Computing Atmospheric mass density...
Loading historical data...
Loading historical data...
Loading historical data...
Loading historical data...
Loading historical data...
Loading historical data...
Loading historical data...

Documentation

Showing up to 5 results
|